Time,TemperatureF,DewpointF,PressureIn,WindDirection,WindDirectionDegrees,WindSpeedMPH,WindSpeedGustMPH,Humidity,HourlyPrecipIn,Conditions,Clouds,dailyrainin,SolarRadiationWatts/m^2,SoftwareType,DateUTC
2013-08-29 00:00:00,69.3,68.1,29.89,NNE,28,0.0,0.0,96,0.00,,,0.00,0,Wunderground v.1.15,2013-08-29 04:00:00,
2013-08-29 00:05:00,69.5,68.3,29.90,NNE,28,0.0,0.0,96,0.00,,,0.00,0,Wunderground v.1.15,2013-08-29 04:05:00,
2013-08-29 00:10:00,69.4,68.2,29.90,NNE,28,0.0,0.0,96,0.00,,,0.00,0,Wunderground v.1.15,2013-08-29 04:10:00,
2013-08-29 00:15:00,69.2,68.0,29.90,NNE,28,0.0,0.0,96,0.00,,,0.00,0,Wunderground v.1.15,2013-08-29 04:15:00,
2013-08-29 00:25:00,68.9,67.7,29.90,NNE,28,0.0,0.0,96,0.00,,,0.00,0,Wunderground v.1.15,2013-08-29 04:25:00,
2013-08-29 00:30:00,68.9,67.7,29.90,NNE,28,0.0,0.0,96,0.00,,,0.00,0,Wunderground v.1.15,2013-08-29 04:30:00,
2013-08-29 00:35:00,68.9,67.7,29.90,NNE,28,0.0,0.0,96,0.00,,,0.00,0,Wunderground v.1.15,2013-08-29 04:35:00,
2013-08-29 00:40:00,68.8,67.6,29.90,NNE,28,0.0,0.0,96,0.00,,,0.00,0,Wunderground v.1.15,2013-08-29 04:40:00,
2013-08-29 00:45:00,68.6,67.4,29.90,NNE,28,0.0,0.0,96,0.00,,,0.00,0,Wunderground v.1.15,2013-08-29 04:45:00,
2013-08-29 00:50:00,68.6,67.7,29.91,NNE,28,0.0,0.0,97,0.00,,,0.00,0,Wunderground v.1.15,2013-08-29 04:50:00,
2013-08-29 00:55:00,68.4,67.5,29.90,NNE,28,0.0,0.0,97,0.00,,,0.00,0,Wunderground v.1.15,2013-08-29 04:55:00,
2013-08-29 01:00:00,68.3,67.4,29.91,NNE,28,0.0,0.0,97,0.00,,,0.00,0,Wunderground v.1.15,2013-08-29 05:00:00,
2013-08-29 01:05:00,68.1,66.9,29.91,NNE,28,0.0,0.0,96,0.00,,,0.00,0,Wunderground v.1.15,2013-08-29 05:05:00,
2013-08-29 01:10:00,68.0,67.1,29.91,NNE,28,0.0,0.0,97,0.00,,,0.00,0,Wunderground v.1.15,2013-08-29 05:10:00,
2013-08-29 01:15:00,67.8,66.9,29.91,NNE,28,0.0,0.0,97,0.00,,,0.00,0,Wunderground v.1.15,2013-08-29 05:15:00,
2013-08-29 01:20:00,67.7,66.8,29.91,NNE,28,0.0,0.0,97,0.00,,,0.00,0,Wunderground v.1.15,2013-08-29 05:20:00,
2013-08-29 01:25:00,67.8,66.9,29.91,NNE,28,0.0,0.0,97,0.00,,,0.00,0,Wunderground v.1.15,2013-08-29 05:25:00,
2013-08-29 01:30:00,67.9,67.0,29.91,NNE,28,0.0,0.0,97,0.00,,,0.00,0,Wunderground v.1.15,2013-08-29 05:30:00,
2013-08-29 01:35:00,67.7,66.8,29.91,NNE,28,0.0,0.0,97,0.00,,,0.00,0,Wunderground v.1.15,2013-08-29 05:35:00,
2013-08-29 01:40:00,67.6,66.7,29.91,NNE,28,0.0,0.0,97,0.00,,,0.00,0,Wunderground v.1.15,2013-08-29 05:40:00,
2013-08-29 01:45:00,67.5,66.6,29.91,NNE,28,0.0,0.0,97,0.00,,,0.00,0,Wunderground v.1.15,2013-08-29 05:45:00,
2013-08-29 01:50:00,67.4,66.5,29.91,NNE,28,0.0,0.0,97,0.00,,,0.00,0,Wunderground v.1.15,2013-08-29 05:50:00,
2013-08-29 01:55:00,67.6,66.7,29.91,NNE,28,0.0,0.0,97,0.00,,,0.00,0,Wunderground v.1.15,2013-08-29 05:55:00,
2013-08-29 02:00:00,67.8,66.9,29.91,NNE,28,0.0,0.0,97,0.00,,,0.00,0,Wunderground v.1.15,2013-08-29 06:00:00,
2013-08-29 02:05:00,68.4,67.8,29.91,NNE,28,0.0,0.0,98,0.00,,,0.00,0,Wunderground v.1.15,2013-08-29 06:05:00,
2013-08-29 02:10:00,68.6,68.0,29.91,NNE,28,0.0,0.0,98,0.00,,,0.00,0,Wunderground v.1.15,2013-08-29 06:10:00,
2013-08-29 02:15:00,68.9,68.3,29.91,NNE,28,0.0,0.0,98,0.00,,,0.00,0,Wunderground v.1.15,2013-08-29 06:15:00,
2013-08-29 02:20:00,69.2,68.6,29.91,NNE,28,0.0,1.0,98,0.00,,,0.00,0,Wunderground v.1.15,2013-08-29 06:20:00,
2013-08-29 02:25:00,69.5,68.9,29.92,NNE,29,1.0,1.0,98,0.00,,,0.00,0,Wunderground v.1.15,2013-08-29 06:25:00,
2013-08-29 02:30:00,69.7,69.1,29.91,NNE,29,0.0,0.0,98,0.00,,,0.00,0,Wunderground v.1.15,2013-08-29 06:30:00,
2013-08-29 02:35:00,69.7,69.1,29.91,NNE,29,0.0,0.0,98,0.00,,,0.00,0,Wunderground v.1.15,2013-08-29 06:35:00,
2013-08-29 02:40:00,69.9,69.3,29.92,NE,34,1.0,1.0,98,0.00,,,0.00,0,Wunderground v.1.15,2013-08-29 06:40:00,
2013-08-29 02:45:00,69.9,69.3,29.92,ENE,66,1.0,1.0,98,0.00,,,0.00,0,Wunderground v.1.15,2013-08-29 06:45:00,
2013-08-29 02:50:00,69.9,69.3,29.92,ENE,68,2.0,2.0,98,0.00,,,0.00,0,Wunderground v.1.15,2013-08-29 06:50:00,
2013-08-29 02:55:00,69.8,69.2,29.92,ENE,74,2.0,2.0,98,0.00,,,0.00,0,Wunderground v.1.15,2013-08-29 06:55:00,
2013-08-29 03:00:00,69.8,69.2,29.92,ENE,78,2.0,5.0,98,0.00,,,0.00,0,Wunderground v.1.15,2013-08-29 07:00:00,
2013-08-29 03:05:00,69.7,68.8,29.92,East,98,3.0,5.0,97,0.00,,,0.00,0,Wunderground v.1.15,2013-08-29 07:05:00,
2013-08-29 03:10:00,69.7,68.8,29.92,East,98,2.0,2.0,97,0.00,,,0.00,0,Wunderground v.1.15,2013-08-29 07:10:00,
2013-08-29 03:15:00,69.6,68.7,29.92,East,98,2.0,2.0,97,0.00,,,0.00,0,Wunderground v.1.15,2013-08-29 07:15:00,
2013-08-29 03:20:00,69.6,68.7,29.92,East,98,1.0,1.0,97,0.00,,,0.00,0,Wunderground v.1.15,2013-08-29 07:20:00,
2013-08-29 03:25:00,69.5,68.6,29.92,East,98,1.0,3.0,97,0.00,,,0.00,0,Wunderground v.1.15,2013-08-29 07:25:00,
2013-08-29 03:35:00,69.5,68.6,29.92,East,98,1.0,3.0,97,0.00,,,0.00,0,Wunderground v.1.15,2013-08-29 07:35:00,
2013-08-29 03:40:00,69.5,68.6,29.92,East,98,1.0,2.0,97,0.00,,,0.00,0,Wunderground v.1.15,2013-08-29 07:40:00,
2013-08-29 03:45:00,69.4,68.5,29.92,East,98,0.0,2.0,97,0.00,,,0.00,0,Wunderground v.1.15,2013-08-29 07:45:00,
2013-08-29 03:50:00,69.4,68.5,29.92,East,98,0.0,0.0,97,0.00,,,0.00,0,Wunderground v.1.15,2013-08-29 07:50:00,
2013-08-29 03:55:00,69.2,68.3,29.92,East,98,0.0,0.0,97,0.00,,,0.00,0,Wunderground v.1.15,2013-08-29 07:55:00,
2013-08-29 04:00:00,69.2,68.3,29.92,East,98,0.0,0.0,97,0.00,,,0.00,0,Wunderground v.1.15,2013-08-29 08:00:00,
2013-08-29 04:05:00,69.1,68.2,29.93,East,98,0.0,0.0,97,0.00,,,0.00,0,Wunderground v.1.15,2013-08-29 08:05:00,
2013-08-29 04:10:00,69.0,68.1,29.93,East,98,0.0,0.0,97,0.00,,,0.00,0,Wunderground v.1.15,2013-08-29 08:10:00,
2013-08-29 04:15:00,69.0,68.1,29.93,East,98,0.0,0.0,97,0.00,,,0.00,0,Wunderground v.1.15,2013-08-29 08:15:00,
2013-08-29 04:20:00,69.0,68.1,29.93,East,98,0.0,0.0,97,0.00,,,0.00,0,Wunderground v.1.15,2013-08-29 08:20:00,
2013-08-29 04:25:00,68.9,68.0,29.93,East,98,0.0,0.0,97,0.00,,,0.00,0,Wunderground v.1.15,2013-08-29 08:25:00,
2013-08-29 04:30:00,68.9,68.0,29.93,East,98,0.0,0.0,97,0.00,,,0.00,0,Wunderground v.1.15,2013-08-29 08:30:00,
2013-08-29 04:35:00,69.1,68.2,29.93,East,98,0.0,5.0,97,0.00,,,0.00,0,Wunderground v.1.15,2013-08-29 08:35:00,
2013-08-29 04:40:00,69.2,68.3,29.93,East,98,2.0,2.0,97,0.00,,,0.00,0,Wunderground v.1.15,2013-08-29 08:40:00,
2013-08-29 04:45:00,69.3,68.4,29.94,East,98,2.0,2.0,97,0.00,,,0.00,0,Wunderground v.1.15,2013-08-29 08:45:00,
2013-08-29 04:50:00,69.4,68.5,29.94,East,94,2.0,2.0,97,0.00,,,0.00,0,Wunderground v.1.15,2013-08-29 08:50:00,
2013-08-29 04:55:00,69.4,68.5,29.93,East,94,1.0,2.0,97,0.00,,,0.00,0,Wunderground v.1.15,2013-08-29 08:55:00,
2013-08-29 05:00:00,69.5,68.6,29.93,East,94,0.0,3.0,97,0.00,,,0.00,0,Wunderground v.1.15,2013-08-29 09:00:00,
2013-08-29 05:05:00,69.5,68.6,29.93,East,94,1.0,3.0,97,0.00,,,0.00,0,Wunderground v.1.15,2013-08-29 09:05:00,
2013-08-29 05:10:00,69.5,68.6,29.94,East,94,0.0,0.0,97,0.00,,,0.00,0,Wunderground v.1.15,2013-08-29 09:10:00,
2013-08-29 05:15:00,69.6,68.7,29.94,East,94,0.0,1.0,97,0.00,,,0.00,0,Wunderground v.1.15,2013-08-29 09:15:00,
2013-08-29 05:20:00,69.6,68.7,29.94,East,94,0.0,0.0,97,0.00,,,0.00,0,Wunderground v.1.15,2013-08-29 09:20:00,
2013-08-29 05:25:00,69.7,68.8,29.94,East,94,0.0,0.0,97,0.00,,,0.00,0,Wunderground v.1.15,2013-08-29 09:25:00,
2013-08-29 05:30:00,69.6,68.7,29.94,East,94,0.0,0.0,97,0.00,,,0.00,0,Wunderground v.1.15,2013-08-29 09:30:00,
2013-08-29 05:40:00,69.7,68.8,29.94,East,94,0.0,0.0,97,0.00,,,0.00,0,Wunderground v.1.15,2013-08-29 09:40:00,
2013-08-29 05:45:00,69.7,68.8,29.94,East,94,0.0,1.0,97,0.00,,,0.00,0,Wunderground v.1.15,2013-08-29 09:45:00,
2013-08-29 05:50:00,69.7,68.8,29.94,East,94,0.0,0.0,97,0.00,,,0.00,0,Wunderground v.1.15,2013-08-29 09:50:00,
2013-08-29 05:55:00,69.8,68.9,29.94,East,94,0.0,0.0,97,0.00,,,0.00,0,Wunderground v.1.15,2013-08-29 09:55:00,
2013-08-29 06:00:00,69.8,68.9,29.95,East,94,0.0,0.0,97,0.00,,,0.00,0,Wunderground v.1.15,2013-08-29 10:00:00,
2013-08-29 06:05:00,69.8,68.9,29.95,East,94,0.0,0.0,97,0.00,,,0.00,0,Wunderground v.1.15,2013-08-29 10:05:00,
2013-08-29 06:10:00,69.7,68.8,29.95,East,94,0.0,0.0,97,0.00,,,0.00,0,Wunderground v.1.15,2013-08-29 10:10:00,
2013-08-29 06:15:00,69.8,68.9,29.95,East,94,0.0,0.0,97,0.00,,,0.00,0,Wunderground v.1.15,2013-08-29 10:15:00,
2013-08-29 06:20:00,69.7,68.8,29.95,East,94,0.0,0.0,97,0.00,,,0.00,0,Wunderground v.1.15,2013-08-29 10:20:00,
2013-08-29 06:25:00,69.8,68.9,29.95,East,94,0.0,3.0,97,0.00,,,0.00,0,Wunderground v.1.15,2013-08-29 10:25:00,
2013-08-29 06:30:00,69.7,68.8,29.96,ESE,102,2.0,5.0,97,0.00,,,0.00,0,Wunderground v.1.15,2013-08-29 10:30:00,
2013-08-29 06:35:00,69.5,68.6,29.96,ESE,123,3.0,5.0,97,0.00,,,0.00,0,Wunderground v.1.15,2013-08-29 10:35:00,
2013-08-29 06:40:00,69.3,68.4,29.97,ESE,123,2.0,4.0,97,0.00,,,0.00,0,Wunderground v.1.15,2013-08-29 10:40:00,
2013-08-29 06:45:00,69.2,68.3,29.97,ESE,123,2.0,4.0,97,0.00,,,0.00,5,Wunderground v.1.15,2013-08-29 10:45:00,
2013-08-29 06:50:00,69.1,68.2,29.97,ESE,123,2.0,2.0,97,0.00,,,0.00,7,Wunderground v.1.15,2013-08-29 10:50:00,
2013-08-29 06:55:00,68.9,67.7,29.97,ESE,123,2.0,2.0,96,0.00,,,0.00,11,Wunderground v.1.15,2013-08-29 10:55:00,
2013-08-29 07:00:00,68.8,67.6,29.97,ESE,123,1.0,1.0,96,0.00,,,0.00,11,Wunderground v.1.15,2013-08-29 11:00:00,
2013-08-29 07:05:00,68.8,67.6,29.97,ESE,123,1.0,1.0,96,0.00,,,0.00,16,Wunderground v.1.15,2013-08-29 11:05:00,
2013-08-29 07:10:00,68.8,67.6,29.97,ESE,123,0.0,0.0,96,0.00,,,0.00,19,Wunderground v.1.15,2013-08-29 11:10:00,
2013-08-29 07:15:00,68.8,67.6,29.97,ESE,123,0.0,0.0,96,0.00,,,0.00,25,Wunderground v.1.15,2013-08-29 11:15:00,
2013-08-29 07:20:00,68.8,67.6,29.97,ESE,123,0.0,0.0,96,0.00,,,0.00,30,Wunderground v.1.15,2013-08-29 11:20:00,
2013-08-29 07:25:00,68.9,67.7,29.97,ESE,123,0.0,1.0,96,0.00,,,0.00,33,Wunderground v.1.15,2013-08-29 11:25:00,
2013-08-29 07:30:00,68.9,67.7,29.98,ESE,123,1.0,1.0,96,0.00,,,0.00,39,Wunderground v.1.15,2013-08-29 11:30:00,
2013-08-29 07:35:00,68.9,67.7,29.98,ESE,123,2.0,2.0,96,0.00,,,0.00,44,Wunderground v.1.15,2013-08-29 11:35:00,
2013-08-29 07:40:00,68.8,67.6,29.98,ESE,123,2.0,2.0,96,0.00,,,0.00,39,Wunderground v.1.15,2013-08-29 11:40:00,
2013-08-29 07:45:00,68.8,67.6,29.99,ESE,123,1.0,2.0,96,0.00,,,0.00,53,Wunderground v.1.15,2013-08-29 11:45:00,
2013-08-29 07:50:00,68.8,67.6,29.99,ESE,123,0.0,2.0,96,0.00,,,0.00,54,Wunderground v.1.15,2013-08-29 11:50:00,
2013-08-29 07:55:00,68.9,67.7,29.99,ESE,123,1.0,2.0,96,0.00,,,0.00,49,Wunderground v.1.15,2013-08-29 11:55:00,
2013-08-29 08:00:00,68.9,67.7,29.99,ESE,123,2.0,2.0,96,0.00,,,0.00,46,Wunderground v.1.15,2013-08-29 12:00:00,
2013-08-29 08:05:00,69.0,67.8,29.99,ESE,123,1.0,2.0,96,0.00,,,0.00,42,Wunderground v.1.15,2013-08-29 12:05:00,
2013-08-29 08:10:00,68.9,67.7,30.00,ESE,123,1.0,1.0,96,0.00,,,0.00,53,Wunderground v.1.15,2013-08-29 12:10:00,
2013-08-29 08:15:00,68.9,67.7,30.00,ESE,123,1.0,1.0,96,0.00,,,0.00,42,Wunderground v.1.15,2013-08-29 12:15:00,
2013-08-29 08:20:00,69.0,67.8,30.00,ESE,123,1.0,1.0,96,0.00,,,0.00,46,Wunderground v.1.15,2013-08-29 12:20:00,
2013-08-29 08:25:00,69.0,67.8,30.00,ESE,123,0.0,1.0,96,0.00,,,0.00,74,Wunderground v.1.15,2013-08-29 12:25:00,
2013-08-29 08:30:00,69.1,67.9,30.00,ESE,123,0.0,0.0,96,0.00,,,0.00,91,Wunderground v.1.15,2013-08-29 12:30:00,
2013-08-29 08:35:00,69.0,67.8,30.01,ESE,123,1.0,3.0,96,0.00,,,0.00,60,Wunderground v.1.15,2013-08-29 12:35:00,
2013-08-29 08:40:00,69.0,67.8,30.01,ESE,123,2.0,2.0,96,0.00,,,0.00,32,Wunderground v.1.15,2013-08-29 12:40:00,
2013-08-29 08:45:00,68.9,67.4,30.01,ENE,70,2.0,2.0,95,0.00,,,0.00,46,Wunderground v.1.15,2013-08-29 12:45:00,
2013-08-29 08:50:00,68.7,67.2,30.01,East,80,4.0,5.0,95,0.00,,,0.00,65,Wunderground v.1.15,2013-08-29 12:50:00,
2013-08-29 08:55:00,68.5,67.0,30.01,East,93,4.0,5.0,95,0.00,,,0.00,109,Wunderground v.1.15,2013-08-29 12:55:00,
2013-08-29 09:00:00,68.5,67.0,30.01,East,92,2.0,2.0,95,0.00,,,0.00,88,Wunderground v.1.15,2013-08-29 13:00:00,
2013-08-29 09:05:00,68.5,67.0,30.01,East,92,1.0,2.0,95,0.00,,,0.00,88,Wunderground v.1.15,2013-08-29 13:05:00,
2013-08-29 09:10:00,68.5,67.0,30.01,East,92,1.0,1.0,95,0.00,,,0.00,97,Wunderground v.1.15,2013-08-29 13:10:00,
2013-08-29 09:15:00,68.6,67.1,30.01,East,92,0.0,1.0,95,0.00,,,0.00,81,Wunderground v.1.15,2013-08-29 13:15:00,
2013-08-29 09:20:00,68.8,67.3,30.02,East,92,1.0,1.0,95,0.00,,,0.00,125,Wunderground v.1.15,2013-08-29 13:20:00,
2013-08-29 09:25:00,68.9,67.4,30.02,East,92,1.0,1.0,95,0.00,,,0.00,209,Wunderground v.1.15,2013-08-29 13:25:00,
2013-08-29 09:30:00,69.1,67.6,30.02,East,92,1.0,1.0,95,0.00,,,0.00,142,Wunderground v.1.15,2013-08-29 13:30:00,
2013-08-29 09:35:00,69.1,67.3,30.02,ENE,76,2.0,3.0,94,0.00,,,0.00,190,Wunderground v.1.15,2013-08-29 13:35:00,
2013-08-29 09:40:00,69.6,67.8,30.01,ENE,64,3.0,3.0,94,0.00,,,0.00,258,Wunderground v.1.15,2013-08-29 13:40:00,
2013-08-29 09:45:00,70.0,67.9,30.01,ENE,71,3.0,3.0,93,0.00,,,0.00,169,Wunderground v.1.15,2013-08-29 13:45:00,
2013-08-29 09:50:00,70.0,67.9,30.02,NE,49,2.0,2.0,93,0.00,,,0.00,188,Wunderground v.1.15,2013-08-29 13:50:00,
2013-08-29 09:55:00,70.1,67.7,30.02,East,94,1.0,3.0,92,0.00,,,0.00,223,Wunderground v.1.15,2013-08-29 13:55:00,
2013-08-29 10:00:00,70.3,67.5,30.02,East,88,2.0,2.0,91,0.00,,,0.00,218,Wunderground v.1.15,2013-08-29 14:00:00,
2013-08-29 10:05:00,70.6,67.8,30.02,East,89,2.0,3.0,91,0.00,,,0.00,353,Wunderground v.1.15,2013-08-29 14:05:00,
2013-08-29 10:10:00,71.1,68.0,30.02,East,98,3.0,3.0,90,0.00,,,0.00,285,Wunderground v.1.15,2013-08-29 14:10:00,
2013-08-29 10:15:00,71.6,68.2,30.02,NE,46,5.0,5.0,89,0.00,,,0.00,334,Wunderground v.1.15,2013-08-29 14:15:00,
2013-08-29 10:20:00,71.8,68.1,30.02,ESE,105,5.0,5.0,88,0.00,,,0.00,752,Wunderground v.1.15,2013-08-29 14:20:00,
2013-08-29 10:25:00,72.9,68.8,30.02,NNE,33,4.0,6.0,87,0.00,,,0.00,786,Wunderground v.1.15,2013-08-29 14:25:00,
2013-08-29 10:35:00,74.0,69.5,30.02,North,11,4.0,6.0,86,0.00,,,0.00,812,Wunderground v.1.15,2013-08-29 14:35:00,
2013-08-29 10:40:00,74.1,69.0,30.02,NE,42,5.0,9.0,84,0.00,,,0.00,246,Wunderground v.1.15,2013-08-29 14:40:00,
2013-08-29 10:50:00,73.7,68.2,30.02,ENE,64,4.0,7.0,83,0.00,,,0.00,179,Wunderground v.1.15,2013-08-29 14:50:00,
2013-08-29 10:55:00,73.0,67.9,30.02,ENE,76,5.0,9.0,84,0.00,,,0.00,329,Wunderground v.1.15,2013-08-29 14:55:00,
2013-08-29 11:00:00,72.6,67.8,30.02,East,90,6.0,6.0,85,0.00,,,0.00,346,Wunderground v.1.15,2013-08-29 15:00:00,
2013-08-29 11:05:00,72.4,67.6,30.02,East,81,5.0,10.0,85,0.00,,,0.00,279,Wunderground v.1.15,2013-08-29 15:05:00,
2013-08-29 11:10:00,72.1,67.3,30.02,ENE,64,5.0,5.0,85,0.00,,,0.00,195,Wunderground v.1.15,2013-08-29 15:10:00,
2013-08-29 11:15:00,71.9,67.5,30.03,East,83,5.0,6.0,86,0.00,,,0.00,308,Wunderground v.1.15,2013-08-29 15:15:00,
2013-08-29 11:20:00,72.0,67.2,30.02,ESE,121,5.0,5.0,85,0.00,,,0.00,306,Wunderground v.1.15,2013-08-29 15:20:00,
2013-08-29 11:25:00,72.0,67.2,30.02,NE,40,5.0,5.0,85,0.00,,,0.00,288,Wunderground v.1.15,2013-08-29 15:25:00,
2013-08-29 11:30:00,72.0,66.6,30.02,ENE,68,7.0,7.0,83,0.00,,,0.00,271,Wunderground v.1.15,2013-08-29 15:30:00,
2013-08-29 11:35:00,71.9,66.8,30.03,East,91,6.0,7.0,84,0.00,,,0.00,276,Wunderground v.1.15,2013-08-29 15:35:00,
2013-08-29 11:40:00,72.2,67.1,30.02,East,85,5.0,6.0,84,0.00,,,0.00,272,Wunderground v.1.15,2013-08-29 15:40:00,
2013-08-29 11:45:00,72.2,66.7,30.03,East,86,5.0,6.0,83,0.00,,,0.00,401,Wunderground v.1.15,2013-08-29 15:45:00,
2013-08-29 11:50:00,72.4,67.3,30.03,ENE,74,4.0,4.0,84,0.00,,,0.00,301,Wunderground v.1.15,2013-08-29 15:50:00,
2013-08-29 11:55:00,72.8,67.3,30.03,East,101,4.0,4.0,83,0.00,,,0.00,290,Wunderground v.1.15,2013-08-29 15:55:00,
2013-08-29 12:00:00,72.5,66.7,30.03,ENE,69,4.0,4.0,82,0.00,,,0.00,290,Wunderground v.1.15,2013-08-29 16:00:00,
2013-08-29 12:05:00,72.2,66.4,30.02,NE,34,6.0,7.0,82,0.00,,,0.00,258,Wunderground v.1.15,2013-08-29 16:05:00,
2013-08-29 12:10:00,72.4,66.9,30.02,NE,36,6.0,6.0,83,0.00,,,0.00,225,Wunderground v.1.15,2013-08-29 16:10:00,
2013-08-29 12:15:00,72.5,66.7,30.02,NNE,21,4.0,6.0,82,0.00,,,0.00,185,Wunderground v.1.15,2013-08-29 16:15:00,
2013-08-29 12:20:00,72.5,66.7,30.02,East,86,4.0,5.0,82,0.00,,,0.00,214,Wunderground v.1.15,2013-08-29 16:20:00,
2013-08-29 12:25:00,72.3,66.5,30.02,North,5,6.0,6.0,82,0.00,,,0.00,232,Wunderground v.1.15,2013-08-29 16:25:00,
2013-08-29 12:30:00,72.2,66.4,30.02,NNE,29,6.0,9.0,82,0.00,,,0.00,139,Wunderground v.1.15,2013-08-29 16:30:00,
2013-08-29 12:35:00,71.8,66.4,30.02,NE,56,8.0,9.0,83,0.00,,,0.00,183,Wunderground v.1.15,2013-08-29 16:35:00,
2013-08-29 12:40:00,71.3,66.2,30.03,East,81,8.0,8.0,84,0.00,,,0.00,239,Wunderground v.1.15,2013-08-29 16:40:00,
2013-08-29 12:45:00,71.2,65.8,30.03,ENE,76,6.0,8.0,83,0.00,,,0.00,327,Wunderground v.1.15,2013-08-29 16:45:00,
2013-08-29 12:50:00,71.5,66.4,30.02,NNE,31,5.0,5.0,84,0.00,,,0.01,364,Wunderground v.1.15,2013-08-29 16:50:00,
2013-08-29 12:55:00,71.9,66.5,30.02,ENE,74,5.0,5.0,83,0.00,,,0.01,408,Wunderground v.1.15,2013-08-29 16:55:00,
2013-08-29 13:00:00,73.1,67.6,30.02,NE,45,4.0,4.0,83,0.00,,,0.01,566,Wunderground v.1.15,2013-08-29 17:00:00,
2013-08-29 13:05:00,73.9,67.3,30.02,NE,45,2.0,5.0,80,0.00,,,0.01,1063,Wunderground v.1.15,2013-08-29 17:05:00,
2013-08-29 13:10:00,74.6,68.7,30.02,NNE,28,4.0,8.0,82,0.00,,,0.01,997,Wunderground v.1.15,2013-08-29 17:10:00,
2013-08-29 13:15:00,74.9,66.8,30.02,NNE,31,5.0,8.0,76,0.00,,,0.01,427,Wunderground v.1.15,2013-08-29 17:15:00,
2013-08-29 13:20:00,75.1,68.1,30.02,ESE,106,6.0,6.0,79,0.00,,,0.01,972,Wunderground v.1.15,2013-08-29 17:20:00,
2013-08-29 13:25:00,75.0,66.9,30.02,ENE,61,6.0,7.0,76,0.00,,,0.01,541,Wunderground v.1.15,2013-08-29 17:25:00,
2013-08-29 13:30:00,75.3,67.6,30.02,ENE,66,5.0,10.0,77,0.00,,,0.01,956,Wunderground v.1.15,2013-08-29 17:30:00,
2013-08-29 13:35:00,75.3,66.8,30.02,ENE,63,5.0,10.0,75,0.00,,,0.01,940,Wunderground v.1.15,2013-08-29 17:35:00,
2013-08-29 13:40:00,75.4,67.7,30.02,NE,53,5.0,5.0,77,0.00,,,0.01,399,Wunderground v.1.15,2013-08-29 17:40:00,
2013-08-29 13:45:00,75.6,67.9,30.02,NE,47,5.0,8.0,77,0.00,,,0.01,246,Wunderground v.1.15,2013-08-29 17:45:00,
2013-08-29 13:50:00,75.8,66.9,30.02,ESE,115,5.0,5.0,74,0.00,,,0.01,833,Wunderground v.1.15,2013-08-29 17:50:00,
2013-08-29 13:55:00,75.8,66.9,30.02,NE,42,7.0,7.0,74,0.00,,,0.01,802,Wunderground v.1.15,2013-08-29 17:55:00,
2013-08-29 14:00:00,76.1,67.2,30.02,ENE,65,6.0,6.0,74,0.00,,,0.01,819,Wunderground v.1.15,2013-08-29 18:00:00,
2013-08-29 14:05:00,75.7,67.2,30.02,East,94,6.0,6.0,75,0.00,,,0.01,860,Wunderground v.1.15,2013-08-29 18:05:00,
2013-08-29 14:10:00,76.0,67.5,30.01,ENE,75,6.0,6.0,75,0.00,,,0.01,814,Wunderground v.1.15,2013-08-29 18:10:00,
2013-08-29 14:15:00,76.0,67.9,30.01,ESE,104,5.0,6.0,76,0.00,,,0.01,777,Wunderground v.1.15,2013-08-29 18:15:00,
2013-08-29 14:20:00,76.1,67.2,30.01,ENE,61,6.0,6.0,74,0.00,,,0.01,802,Wunderground v.1.15,2013-08-29 18:20:00,
2013-08-29 14:25:00,76.2,67.7,30.01,North,5,6.0,6.0,75,0.00,,,0.01,773,Wunderground v.1.15,2013-08-29 18:25:00,
2013-08-29 14:30:00,76.8,67.1,30.01,SE,125,5.0,7.0,72,0.00,,,0.01,835,Wunderground v.1.15,2013-08-29 18:30:00,
2013-08-29 14:35:00,76.4,67.5,30.01,NNE,28,5.0,10.0,74,0.00,,,0.01,761,Wunderground v.1.15,2013-08-29 18:35:00,
2013-08-29 14:40:00,76.7,67.4,30.01,East,80,6.0,7.0,73,0.00,,,0.01,766,Wunderground v.1.15,2013-08-29 18:40:00,
2013-08-29 14:45:00,76.5,67.6,30.01,NE,47,6.0,11.0,74,0.00,,,0.01,773,Wunderground v.1.15,2013-08-29 18:45:00,
2013-08-29 14:50:00,76.6,67.7,30.01,NNE,19,6.0,6.0,74,0.00,,,0.01,733,Wunderground v.1.15,2013-08-29 18:50:00,
2013-08-29 14:55:00,76.9,67.2,30.01,ENE,65,5.0,7.0,72,0.00,,,0.01,738,Wunderground v.1.15,2013-08-29 18:55:00,
2013-08-29 15:00:00,77.1,67.8,30.01,NE,51,5.0,5.0,73,0.00,,,0.01,728,Wunderground v.1.15,2013-08-29 19:00:00,
2013-08-29 15:05:00,77.4,67.3,30.01,ENE,59,4.0,5.0,71,0.00,,,0.01,710,Wunderground v.1.15,2013-08-29 19:05:00,
2013-08-29 15:10:00,76.9,67.2,30.01,East,84,4.0,4.0,72,0.00,,,0.01,696,Wunderground v.1.15,2013-08-29 19:10:00,
2013-08-29 15:15:00,77.0,67.3,30.01,NNE,31,4.0,7.0,72,0.00,,,0.01,696,Wunderground v.1.15,2013-08-29 19:15:00,
2013-08-29 15:20:00,76.9,67.2,30.01,ENE,78,5.0,8.0,72,0.00,,,0.01,737,Wunderground v.1.15,2013-08-29 19:20:00,
2013-08-29 15:25:00,77.4,67.7,30.01,ENE,62,6.0,8.0,72,0.00,,,0.01,494,Wunderground v.1.15,2013-08-29 19:25:00,
2013-08-29 15:30:00,77.1,67.4,30.01,ENE,78,6.0,10.0,72,0.00,,,0.01,645,Wunderground v.1.15,2013-08-29 19:30:00,
2013-08-29 15:35:00,77.2,67.9,30.01,East,91,4.0,10.0,73,0.00,,,0.01,338,Wunderground v.1.15,2013-08-29 19:35:00,
2013-08-29 15:40:00,77.2,67.9,30.01,East,92,4.0,4.0,73,0.00,,,0.01,257,Wunderground v.1.15,2013-08-29 19:40:00,
2013-08-29 15:45:00,76.7,67.8,30.01,ENE,59,4.0,4.0,74,0.00,,,0.01,390,Wunderground v.1.15,2013-08-29 19:45:00,
2013-08-29 15:50:00,76.8,67.9,30.01,ENE,78,4.0,4.0,74,0.00,,,0.01,610,Wunderground v.1.15,2013-08-29 19:50:00,
2013-08-29 15:55:00,77.4,68.1,30.01,ENE,59,4.0,4.0,73,0.00,,,0.01,601,Wunderground v.1.15,2013-08-29 19:55:00,
2013-08-29 16:00:00,77.1,67.4,30.01,ESE,103,3.0,4.0,72,0.00,,,0.01,577,Wunderground v.1.15,2013-08-29 20:00:00,
2013-08-29 16:05:00,77.2,67.5,30.01,East,86,3.0,5.0,72,0.00,,,0.01,548,Wunderground v.1.15,2013-08-29 20:05:00,
2013-08-29 16:10:00,77.6,68.3,30.01,NE,49,4.0,4.0,73,0.00,,,0.01,529,Wunderground v.1.15,2013-08-29 20:10:00,
2013-08-29 16:15:00,77.9,67.7,30.00,ESE,115,4.0,11.0,71,0.00,,,0.01,526,Wunderground v.1.15,2013-08-29 20:15:00,
2013-08-29 16:20:00,77.2,67.1,30.01,East,91,5.0,7.0,71,0.00,,,0.01,503,Wunderground v.1.15,2013-08-29 20:20:00,
2013-08-29 16:25:00,77.1,67.0,30.00,NNE,24,5.0,7.0,71,0.00,,,0.01,485,Wunderground v.1.15,2013-08-29 20:25:00,
2013-08-29 16:30:00,77.4,66.8,30.00,SE,138,3.0,3.0,70,0.00,,,0.01,489,Wunderground v.1.15,2013-08-29 20:30:00,
2013-08-29 16:35:00,77.4,67.3,30.00,ESE,110,3.0,3.0,71,0.00,,,0.01,160,Wunderground v.1.15,2013-08-29 20:35:00,
2013-08-29 16:40:00,76.9,66.8,30.01,East,84,3.0,3.0,71,0.00,,,0.01,137,Wunderground v.1.15,2013-08-29 20:40:00,
2013-08-29 16:45:00,76.5,66.8,30.01,NE,36,2.0,3.0,72,0.00,,,0.01,496,Wunderground v.1.15,2013-08-29 20:45:00,
2013-08-29 16:50:00,76.8,67.1,30.01,NNE,19,2.0,2.0,72,0.00,,,0.01,202,Wunderground v.1.15,2013-08-29 20:50:00,
2013-08-29 16:55:00,77.1,67.8,30.01,NNE,20,4.0,4.0,73,0.00,,,0.01,195,Wunderground v.1.15,2013-08-29 20:55:00,
2013-08-29 17:00:00,77.3,67.2,30.01,ESE,107,3.0,3.0,71,0.00,,,0.01,199,Wunderground v.1.15,2013-08-29 21:00:00,
2013-08-29 17:05:00,77.1,67.0,30.00,East,80,3.0,5.0,71,0.00,,,0.01,144,Wunderground v.1.15,2013-08-29 21:05:00,
2013-08-29 17:10:00,76.9,67.2,30.01,ESE,103,4.0,7.0,72,0.00,,,0.01,144,Wunderground v.1.15,2013-08-29 21:10:00,
2013-08-29 17:15:00,76.4,66.7,30.01,ESE,109,3.0,7.0,72,0.00,,,0.01,123,Wunderground v.1.15,2013-08-29 21:15:00,
2013-08-29 17:20:00,76.2,66.9,30.01,ESE,116,2.0,3.0,73,0.00,,,0.01,155,Wunderground v.1.15,2013-08-29 21:20:00,
2013-08-29 17:25:00,76.2,67.3,30.01,ESE,115,1.0,3.0,74,0.00,,,0.01,134,Wunderground v.1.15,2013-08-29 21:25:00,
2013-08-29 17:30:00,76.1,66.8,30.01,East,89,1.0,1.0,73,0.00,,,0.01,90,Wunderground v.1.15,2013-08-29 21:30:00,
2013-08-29 17:35:00,76.0,66.7,30.01,SE,124,2.0,2.0,73,0.00,,,0.01,77,Wunderground v.1.15,2013-08-29 21:35:00,
2013-08-29 17:40:00,76.0,66.7,30.01,East,92,2.0,2.0,73,0.00,,,0.01,60,Wunderground v.1.15,2013-08-29 21:40:00,
2013-08-29 17:45:00,75.8,66.5,30.01,NE,46,3.0,4.0,73,0.00,,,0.01,58,Wunderground v.1.15,2013-08-29 21:45:00,
2013-08-29 17:50:00,75.6,66.7,30.01,NE,46,3.0,3.0,74,0.00,,,0.01,54,Wunderground v.1.15,2013-08-29 21:50:00,
2013-08-29 17:55:00,75.7,66.8,30.01,SE,126,3.0,3.0,74,0.00,,,0.01,53,Wunderground v.1.15,2013-08-29 21:55:00,
2013-08-29 18:00:00,75.6,66.7,30.01,ESE,116,4.0,4.0,74,0.00,,,0.01,49,Wunderground v.1.15,2013-08-29 22:00:00,
2013-08-29 18:05:00,75.6,66.7,30.01,ENE,76,3.0,4.0,74,0.00,,,0.01,47,Wunderground v.1.15,2013-08-29 22:05:00,
2013-08-29 18:10:00,75.5,66.6,30.01,ESE,121,2.0,7.0,74,0.00,,,0.01,46,Wunderground v.1.15,2013-08-29 22:10:00,
2013-08-29 18:15:00,75.4,66.5,30.01,ESE,119,1.0,7.0,74,0.00,,,0.01,44,Wunderground v.1.15,2013-08-29 22:15:00,
2013-08-29 18:25:00,75.0,66.1,30.01,East,88,2.0,2.0,74,0.00,,,0.01,37,Wunderground v.1.15,2013-08-29 22:25:00,
2013-08-29 18:30:00,75.0,66.1,30.01,East,89,2.0,2.0,74,0.00,,,0.01,32,Wunderground v.1.15,2013-08-29 22:30:00,
2013-08-29 18:35:00,74.8,66.3,30.01,East,89,1.0,3.0,75,0.00,,,0.01,23,Wunderground v.1.15,2013-08-29 22:35:00,
2013-08-29 18:40:00,74.6,66.1,30.01,East,89,1.0,1.0,75,0.00,,,0.01,16,Wunderground v.1.15,2013-08-29 22:40:00,
2013-08-29 18:45:00,74.2,66.1,30.01,East,89,1.0,1.0,76,0.00,,,0.01,12,Wunderground v.1.15,2013-08-29 22:45:00,
2013-08-29 18:50:00,73.9,65.9,30.01,East,89,1.0,2.0,76,0.00,,,0.01,11,Wunderground v.1.15,2013-08-29 22:50:00,
2013-08-29 18:55:00,73.7,66.0,30.01,East,89,1.0,2.0,77,0.00,,,0.01,9,Wunderground v.1.15,2013-08-29 22:55:00,
2013-08-29 19:00:00,73.6,65.9,30.01,East,89,1.0,3.0,77,0.00,,,0.01,7,Wunderground v.1.15,2013-08-29 23:00:00,
2013-08-29 19:05:00,73.3,65.7,30.02,East,89,1.0,3.0,77,0.00,,,0.01,7,Wunderground v.1.15,2013-08-29 23:05:00,
2013-08-29 19:10:00,72.8,65.5,30.02,East,89,1.0,1.0,78,0.00,,,0.01,5,Wunderground v.1.15,2013-08-29 23:10:00,
2013-08-29 19:15:00,72.2,65.3,30.02,East,89,0.0,1.0,79,0.00,,,0.01,5,Wunderground v.1.15,2013-08-29 23:15:00,
2013-08-29 19:20:00,71.6,65.1,30.02,East,89,0.0,0.0,80,0.00,,,0.01,0,Wunderground v.1.15,2013-08-29 23:20:00,
2013-08-29 19:25:00,71.2,65.4,30.02,East,89,0.0,0.0,82,0.00,,,0.01,0,Wunderground v.1.15,2013-08-29 23:25:00,
2013-08-29 19:30:00,71.0,65.6,30.02,East,89,0.0,0.0,83,0.00,,,0.01,0,Wunderground v.1.15,2013-08-29 23:30:00,
2013-08-29 19:35:00,70.9,65.8,30.02,East,89,0.0,0.0,84,0.00,,,0.01,0,Wunderground v.1.15,2013-08-29 23:35:00,
2013-08-29 19:40:00,70.4,65.3,30.02,East,89,0.0,0.0,84,0.00,,,0.01,0,Wunderground v.1.15,2013-08-29 23:40:00,
2013-08-29 19:45:00,69.9,65.2,30.03,East,89,0.0,0.0,85,0.00,,,0.01,0,Wunderground v.1.15,2013-08-29 23:45:00,
2013-08-29 19:50:00,69.9,65.2,30.03,East,89,0.0,0.0,85,0.00,,,0.01,0,Wunderground v.1.15,2013-08-29 23:50:00,
2013-08-29 19:55:00,70.0,65.6,30.03,East,89,0.0,0.0,86,0.00,,,0.01,0,Wunderground v.1.15,2013-08-29 23:55:00,
2013-08-29 20:00:00,69.8,65.8,30.03,East,89,0.0,0.0,87,0.00,,,0.01,0,Wunderground v.1.15,2013-08-30 00:00:00,
2013-08-29 20:05:00,69.7,65.7,30.03,East,89,0.0,0.0,87,0.00,,,0.01,0,Wunderground v.1.15,2013-08-30 00:05:00,
2013-08-29 20:10:00,69.7,65.7,30.03,East,89,0.0,0.0,87,0.00,,,0.01,0,Wunderground v.1.15,2013-08-30 00:10:00,
2013-08-29 20:15:00,70.0,66.0,30.03,ESE,102,1.0,1.0,87,0.00,,,0.01,0,Wunderground v.1.15,2013-08-30 00:15:00,
2013-08-29 20:20:00,70.3,66.2,30.03,SE,138,1.0,3.0,87,0.00,,,0.01,0,Wunderground v.1.15,2013-08-30 00:20:00,
2013-08-29 20:25:00,70.5,66.4,30.03,SE,138,1.0,3.0,87,0.00,,,0.01,0,Wunderground v.1.15,2013-08-30 00:25:00,
2013-08-29 20:30:00,70.6,66.5,30.03,SE,135,2.0,2.0,87,0.00,,,0.01,0,Wunderground v.1.15,2013-08-30 00:30:00,
2013-08-29 20:35:00,70.8,67.1,30.03,SE,144,3.0,6.0,88,0.00,,,0.01,0,Wunderground v.1.15,2013-08-30 00:35:00,
2013-08-29 20:40:00,70.9,67.2,30.03,SE,131,3.0,3.0,88,0.00,,,0.01,0,Wunderground v.1.15,2013-08-30 00:40:00,
2013-08-29 20:45:00,70.8,67.1,30.03,SE,132,2.0,3.0,88,0.00,,,0.01,0,Wunderground v.1.15,2013-08-30 00:45:00,
2013-08-29 20:50:00,70.7,67.0,30.03,SE,132,1.0,1.0,88,0.00,,,0.01,0,Wunderground v.1.15,2013-08-30 00:50:00,
2013-08-29 20:55:00,70.5,66.8,30.03,SE,132,0.0,1.0,88,0.00,,,0.01,0,Wunderground v.1.15,2013-08-30 00:55:00,
2013-08-29 21:00:00,70.3,66.9,30.03,SE,132,0.0,0.0,89,0.00,,,0.01,0,Wunderground v.1.15,2013-08-30 01:00:00,
2013-08-29 21:05:00,70.2,66.8,30.04,SE,132,0.0,0.0,89,0.00,,,0.01,0,Wunderground v.1.15,2013-08-30 01:05:00,
2013-08-29 21:10:00,70.1,67.0,30.04,SE,132,0.0,0.0,90,0.00,,,0.01,0,Wunderground v.1.15,2013-08-30 01:10:00,
2013-08-29 21:15:00,69.6,66.5,30.04,SE,132,0.0,0.0,90,0.00,,,0.01,0,Wunderground v.1.15,2013-08-30 01:15:00,
2013-08-29 21:20:00,69.2,66.1,30.04,SE,132,0.0,0.0,90,0.00,,,0.01,0,Wunderground v.1.15,2013-08-30 01:20:00,
2013-08-29 21:25:00,68.7,66.0,30.04,SE,132,0.0,0.0,91,0.00,,,0.01,0,Wunderground v.1.15,2013-08-30 01:25:00,
2013-08-29 21:30:00,68.6,66.2,30.04,SE,132,0.0,0.0,92,0.00,,,0.01,0,Wunderground v.1.15,2013-08-30 01:30:00,
2013-08-29 21:35:00,68.4,66.0,30.04,SE,132,0.0,0.0,92,0.00,,,0.01,0,Wunderground v.1.15,2013-08-30 01:35:00,
2013-08-29 21:40:00,68.3,65.9,30.04,SE,132,0.0,0.0,92,0.00,,,0.01,0,Wunderground v.1.15,2013-08-30 01:40:00,
2013-08-29 21:45:00,68.1,66.0,30.04,SE,132,0.0,0.0,93,0.00,,,0.01,0,Wunderground v.1.15,2013-08-30 01:45:00,
2013-08-29 21:50:00,68.0,65.9,30.04,SE,132,0.0,0.0,93,0.00,,,0.01,0,Wunderground v.1.15,2013-08-30 01:50:00,
2013-08-29 21:55:00,67.7,65.6,30.04,SE,132,0.0,0.0,93,0.00,,,0.01,0,Wunderground v.1.15,2013-08-30 01:55:00,
2013-08-29 22:00:00,67.7,65.6,30.04,SE,132,0.0,0.0,93,0.00,,,0.01,0,Wunderground v.1.15,2013-08-30 02:00:00,
2013-08-29 22:05:00,67.7,65.9,30.04,SE,132,0.0,0.0,94,0.00,,,0.01,0,Wunderground v.1.15,2013-08-30 02:05:00,
2013-08-29 22:10:00,67.8,66.0,30.04,SE,132,0.0,0.0,94,0.00,,,0.01,0,Wunderground v.1.15,2013-08-30 02:10:00,
2013-08-29 22:15:00,67.9,66.1,30.04,SE,132,0.0,0.0,94,0.00,,,0.01,0,Wunderground v.1.15,2013-08-30 02:15:00,
2013-08-29 22:20:00,68.1,66.3,30.04,SE,132,0.0,0.0,94,0.00,,,0.01,0,Wunderground v.1.15,2013-08-30 02:20:00,
2013-08-29 22:25:00,68.2,66.4,30.05,SE,132,0.0,0.0,94,0.00,,,0.01,0,Wunderground v.1.15,2013-08-30 02:25:00,
2013-08-29 22:30:00,68.3,66.5,30.04,SE,132,0.0,0.0,94,0.00,,,0.01,0,Wunderground v.1.15,2013-08-30 02:30:00,
2013-08-29 22:35:00,68.5,67.0,30.04,SE,132,0.0,0.0,95,0.00,,,0.01,0,Wunderground v.1.15,2013-08-30 02:35:00,
2013-08-29 22:40:00,68.8,67.3,30.04,SE,132,0.0,0.0,95,0.00,,,0.01,0,Wunderground v.1.15,2013-08-30 02:40:00,
2013-08-29 22:45:00,68.9,67.4,30.04,SE,132,0.0,0.0,95,0.00,,,0.01,0,Wunderground v.1.15,2013-08-30 02:45:00,
2013-08-29 22:50:00,69.0,67.5,30.04,SE,132,0.0,0.0,95,0.00,,,0.01,0,Wunderground v.1.15,2013-08-30 02:50:00,
2013-08-29 22:55:00,68.9,67.1,30.04,SE,132,0.0,0.0,94,0.00,,,0.01,0,Wunderground v.1.15,2013-08-30 02:55:00,
2013-08-29 23:00:00,68.9,67.4,30.04,SE,132,0.0,0.0,95,0.00,,,0.01,0,Wunderground v.1.15,2013-08-30 03:00:00,
2013-08-29 23:05:00,68.8,67.0,30.04,SE,132,0.0,0.0,94,0.00,,,0.01,0,Wunderground v.1.15,2013-08-30 03:05:00,
2013-08-29 23:10:00,68.4,66.3,30.04,SE,131,1.0,1.0,93,0.00,,,0.01,0,Wunderground v.1.15,2013-08-30 03:10:00,
2013-08-29 23:15:00,68.2,66.1,30.04,ESE,116,1.0,1.0,93,0.00,,,0.01,0,Wunderground v.1.15,2013-08-30 03:15:00,
2013-08-29 23:20:00,68.1,65.7,30.03,SE,126,1.0,1.0,92,0.00,,,0.01,0,Wunderground v.1.15,2013-08-30 03:20:00,
2013-08-29 23:25:00,68.2,65.8,30.03,ESE,122,1.0,1.0,92,0.00,,,0.01,0,Wunderground v.1.15,2013-08-30 03:25:00,
2013-08-29 23:30:00,68.3,65.6,30.04,ESE,122,0.0,2.0,91,0.00,,,0.01,0,Wunderground v.1.15,2013-08-30 03:30:00,
2013-08-29 23:35:00,68.4,65.4,30.04,ESE,122,0.0,2.0,90,0.00,,,0.01,0,Wunderground v.1.15,2013-08-30 03:35:00,
2013-08-29 23:40:00,68.5,65.4,30.03,ESE,122,0.0,0.0,90,0.00,,,0.01,0,Wunderground v.1.15,2013-08-30 03:40:00,
2013-08-29 23:45:00,68.6,65.2,30.03,ESE,122,0.0,0.0,89,0.00,,,0.01,0,Wunderground v.1.15,2013-08-30 03:45:00,
2013-08-29 23:50:00,68.6,65.2,30.03,ESE,122,0.0,0.0,89,0.00,,,0.01,0,Wunderground v.1.15,2013-08-30 03:50:00,
2013-08-29 23:55:00,68.5,65.1,30.03,ESE,122,0.0,0.0,89,0.00,,,0.01,0,Wunderground v.1.15,2013-08-30 03:55:00,